User: anonymous   Login
Location: Allison's Woods
(35.8809°N, 80.8140°W)
Time: 11:28:03
(UTC-05:00)
Language:

Iridium 39 - Orbit

View from above orbital plane
View from above orbital plane
View from above satellite
View from above satellite

Ground track
Ground track

The orbit data is extracted from the following two-line orbital elements,

1 25042U 97069D   14325.40662244  .00000807  00000-0  28128-3 0   582
2 25042 086.4005 054.5685 0002069 107.6771 252.4651 14.34209935891752
Epoch (UTC): 21 November 2014 09:45:32
Eccentricity: 0.0002069
inclination: 86.4005°
perigee height: 776 km
apogee height: 779 km
right ascension of ascending node: 54.5685°
argument of perigee: 107.6771°
revolutions per day: 14.34209935
mean anomaly at epoch: 252.4651°
orbit number at epoch: 89175

The dashed part of the orbit path shows where the satellite is in the earth's shadow,  

DLR